Tracking 28793 objects as of 20-Apr-2024
HD Live streaming from Space Station
objects crossing your sky now

THOR ABLESTAR DEB

Track THOR ABLESTAR DEB now!
10-day predictions


NORAD ID: 5715
Int'l Code: 1961-015JS
Perigee: 914.9 km
Apogee: 1,153.9 km
Inclination: 66.6 °
Period: 105.7 minutes
Semi major axis: 7405 km
RCS: 0.0104 m2 (small)
Launch date: June 29, 1961
Source: United States (US)
Launch site: AIR FORCE EASTERN TEST RANGE (AFETR)

Note: This is SATELLITE DEBRIS
Your satellite tracking list
Your tracking list is empty




NASA's NSSDC Master Catalog

Two Line Element Set (TLE):
1 05715U 61015JS  24111.57598581  .00002173  00000-0  26542-2 0  9992
2 05715  66.5667 151.9002 0161389 193.8353 246.0535 13.62324519 94356
Source of the keplerian elements: AFSPC